TimeBST,TemperatureF,Dew PointF,Humidity,Sea Level PressureIn,VisibilityMPH,Wind Direction,Wind SpeedMPH,Gust SpeedMPH,PrecipitationIn,Events,Conditions,WindDirDegrees,DateUTC
12:50 AM,42,41,97,30.05,,North,6.9,,,,,0,2012-10-06 23:50:00
3:50 AM,41,41,98,30.07,,North,8.1,,,,,10,2012-10-07 02:50:00
6:50 AM,41,40,94,30.12,,North,9.2,,,,,10,2012-10-07 05:50:00
8:50 AM,46.4,42.8,87,30.15,5.6,North,11.5,-,N/A,,Partly Cloudy,360,2012-10-07 07:50:00
9:20 AM,46.4,44.6,93,30.15,6.2,North,11.5,-,N/A,,Partly Cloudy,360,2012-10-07 08:20:00
9:50 AM,48,45,85,30.18,,North,10.4,,,,,0,2012-10-07 08:50:00
9:50 AM,48.2,44.6,87,30.18,6.2,North,10.4,-,N/A,,Partly Cloudy,360,2012-10-07 08:50:00
10:20 AM,50.0,46.4,87,30.18,6.2,North,10.4,-,N/A,,Partly Cloudy,360,2012-10-07 09:20:00
10:50 AM,51.8,46.4,82,30.18,6.2,North,9.2,-,N/A,,Partly Cloudy,360,2012-10-07 09:50:00
11:20 AM,53.6,48.2,82,30.18,6.2,North,10.4,-,N/A,,Partly Cloudy,360,2012-10-07 10:20:00
11:50 AM,53.6,48.2,82,30.18,6.2,North,9.2,-,N/A,,Partly Cloudy,350,2012-10-07 10:50:00
12:20 PM,57.2,50.0,77,30.18,6.2,North,6.9,-,N/A,,Partly Cloudy,350,2012-10-07 11:20:00
12:50 PM,58,47,59,30.20,,North,4.6,,,,,350,2012-10-07 11:50:00
12:50 PM,57.2,48.2,72,30.18,6.2,North,4.6,-,N/A,,Partly Cloudy,350,2012-10-07 11:50:00
1:20 PM,59.0,46.4,63,30.18,6.2,North,3.5,-,N/A,,Partly Cloudy,350,2012-10-07 12:20:00
1:50 PM,59.0,44.6,59,30.18,6.2,South,6.9,-,N/A,,Partly Cloudy,170,2012-10-07 12:50:00
2:20 PM,59.0,46.4,63,30.18,6.2,South,5.8,-,N/A,,Partly Cloudy,180,2012-10-07 13:20:00
2:50 PM,59.0,46.4,63,30.18,6.2,South,6.9,-,N/A,,Partly Cloudy,190,2012-10-07 13:50:00
3:50 PM,57,46,56,30.20,,SSE,5.8,,,,,160,2012-10-07 14:50:00
3:50 PM,57.2,46.4,67,30.18,6.2,SSE,6.9,-,N/A,,Partly Cloudy,160,2012-10-07 14:50:00
4:20 PM,57.2,48.2,72,30.18,6.2,SSE,4.6,-,N/A,,Partly Cloudy,150,2012-10-07 15:20:00
4:50 PM,57.2,46.4,67,30.18,6.2,SE,4.6,-,N/A,,Partly Cloudy,140,2012-10-07 15:50:00
5:20 PM,57.2,46.4,67,30.18,6.2,SSE,5.8,-,N/A,,Partly Cloudy,150,2012-10-07 16:20:00
5:50 PM,55.4,46.4,72,30.18,6.2,SE,5.8,-,N/A,,Partly Cloudy,140,2012-10-07 16:50:00
6:20 PM,53.6,46.4,77,30.18,6.2,ESE,6.9,-,N/A,,Partly Cloudy,110,2012-10-07 17:20:00
6:50 PM,55,47,66,30.19,,ESE,8.1,,,,,120,2012-10-07 17:50:00
9:50 PM,51,47,80,30.19,,East,3.5,,,,,80,2012-10-07 20:50:00